Location: Beddau
(51.5575°N, 3.3561°W)
Time: 12:49:05
(UTC+00:00)

Cosmos 1992 Rocket - Pass Details

Date: 03 March 2021
Orbit: 759 x 765 km, 74.0° (Epoch: 11 April)

Event Time Altitude Azimuth Distance (km) Brightness Sun altitude
Rises 19:29:11 0° 205° (SSW) 3,219 7.4 -15.0°
Reaches altitude 10° 19:31:33 10° 206° (SSW) 2,297 6.7 -15.4°
Maximum altitude 19:36:46 84° 293° (WNW) 775 4.0 -16.2°
Drops below altitude 10° 19:42:02 10° 24° (NNE) 2,310 6.3 -17.0°
Sets 19:44:25 0° 25° (NNE) 3,239 7.1 -17.3°
